Time,TemperatureF,DewpointF,PressureIn,WindDirection,WindDirectionDegrees,WindSpeedMPH,WindSpeedGustMPH,Humidity,HourlyPrecipIn,Conditions,Clouds,dailyrainin,SoftwareType,DateUTC
2013-07-22 00:02:00,74.0,71.0,29.72,SE,131,0.0,0.0,90,0.00,,,0.00,,2013-07-22 05:02:00,
2013-07-22 00:11:00,74.0,71.0,29.72,SE,131,0.0,0.0,90,0.00,,,0.00,,2013-07-22 05:11:00,
2013-07-22 00:22:00,74.0,72.0,29.72,SE,131,0.0,0.0,92,0.00,,,0.00,,2013-07-22 05:22:00,
2013-07-22 00:32:00,74.0,72.0,29.72,SE,131,0.0,0.0,93,0.00,,,0.00,,2013-07-22 05:32:00,
2013-07-22 00:42:00,74.0,72.0,29.72,SE,131,0.0,0.0,93,0.00,,,0.00,,2013-07-22 05:42:00,
2013-07-22 00:52:00,73.0,71.0,29.72,SE,133,3.0,5.0,93,0.00,,,0.00,,2013-07-22 05:52:00,
2013-07-22 01:01:00,74.0,72.0,29.71,South,173,0.0,4.0,93,0.00,,,0.00,,2013-07-22 06:01:00,
2013-07-22 01:11:00,74.0,72.0,29.71,South,173,0.0,4.0,93,0.00,,,0.00,,2013-07-22 06:11:00,
2013-07-22 01:22:00,74.0,72.0,29.71,South,174,3.0,7.0,92,0.00,,,0.00,,2013-07-22 06:22:00,
2013-07-22 01:32:00,74.0,71.0,29.71,SSE,168,4.0,9.0,90,0.00,,,0.00,,2013-07-22 06:32:00,
2013-07-22 01:43:00,74.0,71.0,29.71,SSE,168,4.0,9.0,90,0.00,,,0.00,,2013-07-22 06:43:00,
2013-07-22 01:52:00,75.0,72.0,29.70,South,189,4.0,10.0,90,0.00,,,0.00,,2013-07-22 06:52:00,
2013-07-22 02:01:00,74.0,71.0,29.70,SSW,194,6.0,13.0,90,0.00,,,0.00,,2013-07-22 07:01:00,
2013-07-22 02:11:00,74.0,71.0,29.70,SSW,194,6.0,13.0,90,0.00,,,0.00,,2013-07-22 07:11:00,
2013-07-22 02:22:00,74.0,71.0,29.70,South,179,7.0,11.0,90,0.00,,,0.00,,2013-07-22 07:22:00,
2013-07-22 02:33:00,74.0,71.0,29.69,South,174,6.0,11.0,90,0.00,,,0.00,,2013-07-22 07:33:00,
2013-07-22 02:43:00,74.0,71.0,29.69,South,174,6.0,11.0,90,0.00,,,0.00,,2013-07-22 07:43:00,
2013-07-22 02:53:00,73.0,70.0,29.69,SW,214,5.0,9.0,90,0.00,,,0.00,,2013-07-22 07:53:00,
2013-07-22 03:01:00,73.0,70.0,29.69,SW,221,3.0,10.0,91,0.00,,,0.00,,2013-07-22 08:01:00,
2013-07-22 03:11:00,73.0,70.0,29.69,SW,221,3.0,10.0,91,0.00,,,0.00,,2013-07-22 08:11:00,
2013-07-22 03:22:00,72.0,69.0,29.69,SW,217,5.0,11.0,91,0.00,,,0.00,,2013-07-22 08:22:00,
2013-07-22 03:32:00,73.0,70.0,29.69,SSW,207,4.0,10.0,89,0.00,,,0.00,,2013-07-22 08:32:00,
2013-07-22 03:43:00,73.0,70.0,29.69,SSW,207,4.0,10.0,89,0.00,,,0.00,,2013-07-22 08:43:00,
2013-07-22 03:52:00,72.0,69.0,29.68,SW,215,5.0,12.0,89,0.00,,,0.00,,2013-07-22 08:52:00,
2013-07-22 04:02:00,72.0,69.0,29.68,West,263,4.0,10.0,89,0.00,,,0.00,,2013-07-22 09:02:00,
2013-07-22 04:11:00,72.0,69.0,29.68,West,263,4.0,10.0,89,0.00,,,0.00,,2013-07-22 09:11:00,
2013-07-22 04:22:00,72.0,69.0,29.68,SSW,213,4.0,10.0,89,0.00,,,0.00,,2013-07-22 09:22:00,
2013-07-22 04:33:00,72.0,69.0,29.68,SW,225,4.0,9.0,89,0.00,,,0.00,,2013-07-22 09:33:00,
2013-07-22 04:42:00,72.0,69.0,29.68,SW,225,4.0,9.0,89,0.00,,,0.00,,2013-07-22 09:42:00,
2013-07-22 04:52:00,72.0,69.0,29.68,SW,222,4.0,8.0,89,0.00,,,0.00,,2013-07-22 09:52:00,
2013-07-22 05:02:00,72.0,69.0,29.67,SSW,211,2.0,6.0,90,0.00,,,0.00,,2013-07-22 10:02:00,
2013-07-22 05:11:00,72.0,69.0,29.67,SSW,211,2.0,6.0,90,0.00,,,0.00,,2013-07-22 10:11:00,
2013-07-22 05:22:00,71.0,68.0,29.67,SSW,196,4.0,7.0,90,0.00,,,0.00,,2013-07-22 10:22:00,
2013-07-22 05:32:00,71.0,68.0,29.69,SSW,198,0.0,4.0,90,0.00,,,0.00,,2013-07-22 10:32:00,
2013-07-22 05:43:00,71.0,68.0,29.69,SSW,198,0.0,4.0,90,0.00,,,0.00,,2013-07-22 10:43:00,
2013-07-22 05:53:00,71.0,68.0,29.70,SSW,195,0.0,0.0,91,0.00,,,0.00,,2013-07-22 10:53:00,
2013-07-22 06:01:00,70.0,67.0,29.69,South,173,2.0,5.0,91,0.00,,,0.00,,2013-07-22 11:01:00,
2013-07-22 06:11:00,70.0,67.0,29.69,South,173,2.0,5.0,91,0.00,,,0.00,,2013-07-22 11:11:00,
2013-07-22 06:23:00,70.0,68.0,29.69,SSW,200,0.0,7.0,92,0.00,,,0.00,,2013-07-22 11:23:00,
2013-07-22 06:32:00,70.0,68.0,29.69,SSE,167,1.0,6.0,92,0.00,,,0.00,,2013-07-22 11:32:00,
2013-07-22 06:43:00,70.0,68.0,29.69,SSE,167,1.0,6.0,92,0.00,,,0.00,,2013-07-22 11:43:00,
2013-07-22 06:52:00,70.0,68.0,29.68,South,177,0.0,5.0,93,0.00,,,0.00,,2013-07-22 11:52:00,
2013-07-22 07:02:00,70.0,68.0,29.68,SSW,205,0.0,5.0,92,0.00,,,0.00,,2013-07-22 12:02:00,
2013-07-22 07:11:00,70.0,68.0,29.68,SSW,205,0.0,5.0,92,0.00,,,0.00,,2013-07-22 12:11:00,
2013-07-22 07:22:00,70.0,68.0,29.68,South,191,2.0,6.0,92,0.00,,,0.00,,2013-07-22 12:22:00,
2013-07-22 07:32:00,71.0,68.0,29.68,SSW,213,3.0,7.0,91,0.00,,,0.00,,2013-07-22 12:32:00,
2013-07-22 07:43:00,71.0,68.0,29.68,SSW,213,3.0,7.0,91,0.00,,,0.00,,2013-07-22 12:43:00,
2013-07-22 07:53:00,71.0,68.0,29.69,SSW,208,3.0,7.0,91,0.00,,,0.00,,2013-07-22 12:53:00,
2013-07-22 08:01:00,72.0,69.0,29.69,SW,227,3.0,7.0,90,0.00,,,0.00,,2013-07-22 13:01:00,
2013-07-22 08:11:00,72.0,69.0,29.69,SW,227,3.0,7.0,90,0.00,,,0.00,,2013-07-22 13:11:00,
2013-07-22 08:22:00,73.0,70.0,29.70,SSW,192,3.0,7.0,89,0.00,,,0.00,,2013-07-22 13:22:00,
2013-07-22 08:32:00,74.0,70.0,29.70,SSW,207,2.0,10.0,88,0.00,,,0.00,,2013-07-22 13:32:00,
2013-07-22 08:43:00,74.0,70.0,29.70,SSW,207,2.0,10.0,88,0.00,,,0.00,,2013-07-22 13:43:00,
2013-07-22 08:53:00,74.0,70.0,29.70,South,171,3.0,11.0,87,0.00,,,0.00,,2013-07-22 13:53:00,
2013-07-22 09:01:00,75.0,71.0,29.70,SSE,162,5.0,10.0,87,0.00,,,0.00,,2013-07-22 14:01:00,
2013-07-22 09:11:00,75.0,71.0,29.70,SSE,162,5.0,10.0,87,0.00,,,0.00,,2013-07-22 14:11:00,
2013-07-22 09:22:00,76.0,72.0,29.71,SSW,195,3.0,7.0,86,0.00,,,0.00,,2013-07-22 14:22:00,
2013-07-22 09:32:00,77.0,72.0,29.71,SW,226,5.0,7.0,84,0.00,,,0.00,,2013-07-22 14:32:00,
2013-07-22 09:43:00,77.0,72.0,29.71,SW,226,5.0,7.0,84,0.00,,,0.00,,2013-07-22 14:43:00,
2013-07-22 09:53:00,78.0,72.0,29.72,WSW,252,3.0,11.0,82,0.00,,,0.00,,2013-07-22 14:53:00,
2013-07-22 10:01:00,79.0,72.0,29.71,SSE,161,4.0,9.0,80,0.00,,,0.00,,2013-07-22 15:01:00,
2013-07-22 10:11:00,79.0,72.0,29.71,SSE,161,4.0,9.0,80,0.00,,,0.00,,2013-07-22 15:11:00,
2013-07-22 10:22:00,80.0,72.0,29.71,SSW,194,3.0,8.0,78,0.00,,,0.00,,2013-07-22 15:22:00,
2013-07-22 10:33:00,81.0,74.0,29.70,SW,227,3.0,9.0,79,0.00,,,0.00,,2013-07-22 15:33:00,
2013-07-22 10:43:00,81.0,74.0,29.70,SW,227,3.0,9.0,79,0.00,,,0.00,,2013-07-22 15:43:00,
2013-07-22 10:52:00,82.0,74.0,29.70,SSW,202,4.0,13.0,77,0.00,,,0.00,,2013-07-22 15:52:00,
2013-07-22 11:01:00,82.0,73.0,29.70,SSW,192,5.0,13.0,75,0.00,,,0.00,,2013-07-22 16:01:00,
2013-07-22 11:11:00,82.0,73.0,29.70,SSW,192,5.0,13.0,75,0.00,,,0.00,,2013-07-22 16:11:00,
2013-07-22 11:21:00,81.0,73.0,29.69,SW,225,5.0,13.0,77,0.00,,,0.00,,2013-07-22 16:21:00,
2013-07-22 11:32:00,84.0,75.0,29.69,SW,225,4.0,9.0,75,0.00,,,0.00,,2013-07-22 16:32:00,
2013-07-22 11:43:00,84.0,75.0,29.69,SW,225,4.0,9.0,75,0.00,,,0.00,,2013-07-22 16:43:00,
2013-07-22 11:52:00,83.0,75.0,29.69,WSW,257,3.0,11.0,76,0.00,,,0.00,,2013-07-22 16:52:00,
2013-07-22 12:01:00,84.0,75.0,29.70,WSW,244,4.0,11.0,74,0.00,,,0.00,,2013-07-22 17:01:00,
2013-07-22 12:11:00,84.0,75.0,29.70,WSW,244,4.0,11.0,74,0.00,,,0.00,,2013-07-22 17:11:00,
2013-07-22 12:23:00,85.0,74.0,29.70,SW,223,5.0,9.0,70,0.00,,,0.00,,2013-07-22 17:23:00,
2013-07-22 12:32:00,85.0,75.0,29.70,WNW,288,1.0,9.0,71,0.00,,,0.00,,2013-07-22 17:32:00,
2013-07-22 12:43:00,85.0,75.0,29.70,WNW,288,1.0,9.0,71,0.00,,,0.00,,2013-07-22 17:43:00,
2013-07-22 12:52:00,87.0,75.0,29.71,West,263,1.0,5.0,68,0.00,,,0.00,,2013-07-22 17:52:00,
2013-07-22 13:13:00,87.0,73.0,29.71,WSW,256,1.0,7.0,64,0.00,,,0.00,,2013-07-22 18:13:00,
2013-07-22 13:34:00,90.0,73.0,29.70,SSW,209,1.0,5.0,58,0.00,,,0.00,,2013-07-22 18:34:00,
2013-07-22 13:59:00,91.0,72.0,29.69,SSW,200,0.0,7.0,54,0.00,,,0.00,,2013-07-22 18:59:00,
2013-07-22 14:04:00,91.0,72.0,29.68,ESE,123,0.0,5.0,54,0.00,,,0.00,,2013-07-22 19:04:00,
2013-07-22 14:14:00,91.0,72.0,29.68,ESE,123,0.0,5.0,54,0.00,,,0.00,,2013-07-22 19:14:00,
2013-07-22 14:23:00,90.0,73.0,29.68,SSW,211,5.0,9.0,58,0.00,,,0.00,,2013-07-22 19:23:00,
2013-07-22 14:34:00,90.0,73.0,29.68,SSW,211,5.0,9.0,58,0.00,,,0.00,,2013-07-22 19:34:00,
2013-07-22 14:44:00,90.0,73.0,29.68,SSW,211,5.0,9.0,58,0.00,,,0.00,,2013-07-22 19:44:00,
2013-07-22 14:55:00,91.0,74.0,29.68,South,184,3.0,8.0,57,0.00,,,0.00,,2013-07-22 19:55:00,
2013-07-22 15:03:00,91.0,71.0,29.68,SSW,199,5.0,11.0,53,0.00,,,0.00,,2013-07-22 20:03:00,
2013-07-22 15:15:00,91.0,71.0,29.68,SSW,199,5.0,11.0,53,0.00,,,0.00,,2013-07-22 20:15:00,
2013-07-22 15:22:00,92.0,73.0,29.68,SW,216,4.0,8.0,54,0.00,,,0.00,,2013-07-22 20:22:00,
2013-07-22 15:32:00,92.0,72.0,29.68,SSW,194,3.0,11.0,53,0.00,,,0.00,,2013-07-22 20:32:00,
2013-07-22 15:43:00,92.0,72.0,29.68,SSW,194,3.0,11.0,53,0.00,,,0.00,,2013-07-22 20:43:00,
2013-07-22 15:52:00,92.0,72.0,29.68,South,178,1.0,9.0,53,0.00,,,0.00,,2013-07-22 20:52:00,
2013-07-22 16:01:00,93.0,73.0,29.68,SW,219,4.0,9.0,52,0.00,,,0.00,,2013-07-22 21:01:00,
2013-07-22 16:11:00,93.0,73.0,29.68,SW,219,4.0,9.0,52,0.00,,,0.00,,2013-07-22 21:11:00,
2013-07-22 16:22:00,93.0,73.0,29.67,South,173,2.0,13.0,52,0.00,,,0.00,,2013-07-22 21:22:00,
2013-07-22 16:32:00,93.0,73.0,29.67,South,173,2.0,13.0,52,0.00,,,0.00,,2013-07-22 21:32:00,
2013-07-22 16:43:00,93.0,73.0,29.67,South,173,2.0,13.0,52,0.00,,,0.00,,2013-07-22 21:43:00,
2013-07-22 16:53:00,95.0,73.0,29.68,SW,227,5.0,8.0,50,0.00,,,0.00,,2013-07-22 21:53:00,
2013-07-22 17:01:00,93.0,73.0,29.67,SSE,168,3.0,10.0,53,0.00,,,0.00,,2013-07-22 22:01:00,
2013-07-22 17:11:00,93.0,73.0,29.67,SSE,168,3.0,10.0,53,0.00,,,0.00,,2013-07-22 22:11:00,
2013-07-22 17:22:00,93.0,73.0,29.67,South,188,3.0,9.0,53,0.00,,,0.00,,2013-07-22 22:22:00,
2013-07-22 17:32:00,93.0,74.0,29.67,SW,227,3.0,11.0,55,0.00,,,0.00,,2013-07-22 22:32:00,
2013-07-22 17:43:00,93.0,74.0,29.67,SW,227,3.0,11.0,55,0.00,,,0.00,,2013-07-22 22:43:00,
2013-07-22 17:52:00,92.0,73.0,29.67,SSE,159,3.0,13.0,55,0.00,,,0.00,,2013-07-22 22:52:00,
2013-07-22 18:01:00,92.0,73.0,29.67,SW,221,2.0,11.0,55,0.00,,,0.00,,2013-07-22 23:01:00,
2013-07-22 18:11:00,92.0,73.0,29.67,SW,221,2.0,11.0,55,0.00,,,0.00,,2013-07-22 23:11:00,
2013-07-22 18:22:00,91.0,73.0,29.65,South,180,0.0,4.0,56,0.00,,,0.00,,2013-07-22 23:22:00,
2013-07-22 18:32:00,90.0,74.0,29.66,South,182,0.0,0.0,59,0.00,,,0.00,,2013-07-22 23:32:00,
2013-07-22 18:42:00,90.0,74.0,29.66,South,182,0.0,0.0,59,0.00,,,0.00,,2013-07-22 23:42:00,
2013-07-22 19:01:00,88.0,74.0,29.65,SW,216,1.0,4.0,64,0.00,,,0.00,,2013-07-23 00:01:00,
2013-07-22 19:12:00,88.0,74.0,29.65,SW,216,1.0,4.0,64,0.00,,,0.00,,2013-07-23 00:12:00,
2013-07-22 20:01:00,80.0,70.0,29.67,WSW,251,2.0,5.0,71,0.02,,,0.02,,2013-07-23 01:01:00,
2013-07-22 20:11:00,80.0,70.0,29.67,WSW,251,2.0,5.0,71,0.02,,,0.02,,2013-07-23 01:11:00,
2013-07-22 20:32:00,80.0,68.0,29.70,West,281,3.0,10.0,68,0.00,,,0.02,,2013-07-23 01:32:00,
2013-07-22 20:43:00,80.0,68.0,29.70,West,281,3.0,10.0,68,0.00,,,0.02,,2013-07-23 01:43:00,
2013-07-22 20:53:00,82.0,69.0,29.69,WNW,290,0.0,1.0,64,0.00,,,0.02,,2013-07-23 01:53:00,
2013-07-22 21:01:00,82.0,69.0,29.69,WNW,290,0.0,0.0,66,0.00,,,0.02,,2013-07-23 02:01:00,
2013-07-22 21:11:00,82.0,69.0,29.69,WNW,290,0.0,0.0,66,0.00,,,0.02,,2013-07-23 02:11:00,
2013-07-22 21:22:00,82.0,69.0,29.69,NNW,328,7.0,14.0,64,0.00,,,0.02,,2013-07-23 02:22:00,
2013-07-22 21:33:00,82.0,68.0,29.70,WNW,285,6.0,14.0,63,0.00,,,0.02,,2013-07-23 02:33:00,
2013-07-22 21:43:00,82.0,68.0,29.70,WNW,285,6.0,14.0,63,0.00,,,0.02,,2013-07-23 02:43:00,
2013-07-22 21:53:00,81.0,67.0,29.71,NNW,342,6.0,16.0,63,0.00,,,0.02,,2013-07-23 02:53:00,
2013-07-22 22:01:00,80.0,65.0,29.72,North,360,6.0,15.0,60,0.00,,,0.02,,2013-07-23 03:01:00,
2013-07-22 22:11:00,80.0,65.0,29.72,North,360,6.0,15.0,60,0.00,,,0.02,,2013-07-23 03:11:00,
2013-07-22 22:22:00,79.0,63.0,29.73,WNW,299,4.0,13.0,59,0.00,,,0.02,,2013-07-23 03:22:00,
2013-07-22 22:33:00,79.0,63.0,29.74,NNE,14,6.0,14.0,59,0.00,,,0.02,,2013-07-23 03:33:00,
2013-07-22 22:43:00,79.0,63.0,29.74,NNE,14,6.0,14.0,59,0.00,,,0.02,,2013-07-23 03:43:00,
2013-07-22 22:52:00,78.0,63.0,29.75,NE,38,3.0,10.0,60,0.00,,,0.02,,2013-07-23 03:52:00,
2013-07-22 23:01:00,77.0,63.0,29.76,NE,38,6.0,12.0,63,0.00,,,0.02,,2013-07-23 04:01:00,
2013-07-22 23:11:00,77.0,63.0,29.76,NE,38,6.0,12.0,63,0.00,,,0.02,,2013-07-23 04:11:00,
2013-07-22 23:21:00,77.0,63.0,29.76,NE,38,6.0,12.0,63,0.00,,,0.02,,2013-07-23 04:21:00,
2013-07-22 23:32:00,75.0,63.0,29.77,North,355,4.0,11.0,66,0.00,,,0.02,,2013-07-23 04:32:00,
2013-07-22 23:43:00,75.0,63.0,29.77,North,355,4.0,11.0,66,0.00,,,0.02,,2013-07-23 04:43:00,
2013-07-22 23:53:00,75.0,63.0,29.77,NE,38,5.0,11.0,67,0.00,,,0.02,,2013-07-23 04:53:00,